Change the Weather History Date:

Wednesday, April 9, 2014

  Actual Average Record
Temperature  
Mean Temperature 64 °F -  
Max Temperature 84 °F - 84 °F (2014)
Min Temperature 45 °F - 33 °F (1999)
Degree Days  
Heating Degree Days 0    
Month to date heating degree days  
Since 1 July heating degree days  
Cooling Degree Days 0    
Month to date cooling degree days  
Year to date cooling degree days  
Growing Degree Days 14 (Base 50)    
Moisture  
Dew Point 6 °F    
Average Humidity 10    
Maximum Humidity 21    
Minimum Humidity 4    
Precipitation  
Precipitation 0.00 in - 0.00 in (2015)
Month to date precipitation  
Year to date precipitation  
Sea Level Pressure  
Sea Level Pressure 29.95 in    
Wind  
Wind Speed 8 mph (WSW)    
Max Wind Speed 21 mph    
Max Gust Speed 28 mph    
Visibility 10 miles    
Events      
T = Trace of Precipitation, MM = Missing Value Source: NWS Daily Summary

Daily Weather History Graph

Daily Weather History Graph

Search for Another Location

Airport or City:

Trip Planner

Search our weather history database for the weather conditions in past years. The results will help you decide how hot, cold, wet, or windy it might be!

Date:

Astronomy

Apr. 09, 2014 Rise Set
Actual Time 6:46 AM MDT 7:35 PM MDT
Civil Twilight 6:21 AM MDT 8:00 PM MDT
Nautical Twilight 5:51 AM MDT 8:30 PM MDT
Astronomical Twilight 5:20 AM MDT 9:00 PM MDT
Moon 2:41 PM MDT (4/9) 3:21 AM MDT (4/9)
Length of Visible Light 13h 39m
Length of Day
12h 48m
Waxing Gibbous, 72% of the Moon is Illuminated
Apr 9
Waxing Gibbous
Apr 15
Full
Apr 22
Last Quarter
Apr 29
New
May 6
First Quarter

Hourly Weather History & Observations

Time (MDT) Temp. Windchill Dew Point Humidity Pressure Visibility Wind Dir Wind Speed Gust Speed Precip Events Conditions
12:53 AM 53.1 °F - 9.0 °F 17% 30.06 in 10.0 mi WNW 6.9 mph - N/A   Clear
1:53 AM 52.0 °F - 9.0 °F 18% 30.05 in 10.0 mi NW 5.8 mph - N/A   Clear
2:53 AM 52.0 °F - 7.0 °F 16% 30.04 in 10.0 mi West 8.1 mph - N/A   Clear
3:53 AM 52.0 °F - 7.0 °F 16% 30.03 in 10.0 mi West 8.1 mph - N/A   Clear
4:53 AM 46.9 °F - 7.0 °F 20% 30.04 in 10.0 mi West 8.1 mph - N/A   Clear
5:53 AM 48.0 °F - 8.1 °F 20% 30.04 in 10.0 mi WNW 8.1 mph - N/A   Clear
6:53 AM 46.0 °F 43.1 °F 8.1 °F 21% 30.06 in 10.0 mi West 5.8 mph - N/A   Clear
7:53 AM 52.0 °F - 9.0 °F 18% 30.08 in 10.0 mi SW 4.6 mph - N/A   Clear
8:53 AM 59.0 °F - 9.0 °F 14% 30.07 in 10.0 mi West 4.6 mph - N/A   Clear
9:53 AM 66.0 °F - 9.0 °F 11% 30.05 in 10.0 mi Calm Calm - N/A   Clear
10:53 AM 69.1 °F - 8.1 °F 9% 30.05 in 10.0 mi SSE 8.1 mph - N/A   Clear
11:53 AM 73.9 °F - 10.9 °F 9% 30.02 in 10.0 mi South 8.1 mph - N/A   Clear
12:53 PM 78.1 °F - 9.0 °F 7% 29.99 in 10.0 mi South 9.2 mph - N/A   Clear
1:53 PM 81.0 °F - 8.1 °F 6% 29.94 in 10.0 mi South 15.0 mph 19.6 mph N/A   Clear
2:53 PM 81.0 °F - 7.0 °F 6% 29.90 in 10.0 mi South 8.1 mph 17.3 mph N/A   Clear
3:53 PM 82.9 °F - 5.0 °F 5% 29.86 in 10.0 mi SSE 16.1 mph 23.0 mph N/A   Clear
4:53 PM 82.9 °F - 3.9 °F 5% 29.84 in 10.0 mi SSE 20.7 mph 27.6 mph N/A   Clear
5:53 PM 82.9 °F - 1.0 °F 4% 29.81 in 10.0 mi SW 9.2 mph - N/A   Clear
6:53 PM 81.0 °F - -0.0 °F 4% 29.81 in 10.0 mi WSW 16.1 mph - N/A   Clear
7:53 PM 75.9 °F - 1.9 °F 6% 29.83 in 10.0 mi WSW 15.0 mph - N/A   Clear
8:53 PM 72.0 °F - -0.0 °F 6% 29.85 in 10.0 mi WSW 10.4 mph - N/A   Clear
9:53 PM 68.0 °F - 1.0 °F 7% 29.87 in 10.0 mi NNW 8.1 mph - N/A   Clear
10:53 PM 69.1 °F - 1.9 °F 7% 29.86 in 10.0 mi WNW 11.5 mph - N/A   Clear
11:53 PM 66.0 °F - 3.0 °F 8% 29.86 in 10.0 mi Variable 3.5 mph - N/A   Clear